This demonstration page uses our WeatherBlox Daily Observations layout. Learn more.

Left ArrowRight Arrow

34.74481, -87.66753

Hourly Observations for June 10, 2020

Temp ( °F °C ) Dew Point ( °F °C ) Humidity (%) Winds ( mph kmh ) Pressure ( in mb ) Visibility ( mi km ) Precip ( " mm )
12:53 am 00:53 Cloudy 81 27.2 74 23.3 79 79 S 13 20 29.84 1011 10 16 0.00 0.00
1:53 am 01:53 Cloudy 81 27.2 74 23.3 79 79 S 13 20 29.83 1010 10 16 0.00 0.00
2:53 am 02:53 Cloudy 82 27.8 74 23.3 77 77 SSW 13 20 29.83 1010 10 16 0.00 0.00
3:53 am 03:53 Cloudy 81 27.2 74 23.3 79 79 SSW 14 22 29.83 1010 10 16 0.00 0.00
4:53 am 04:53 Cloudy 80 26.7 75 23.9 85 85 SW 10 17 29.85 1011 10 16 0.03 0.76
5:42 am 05:42 Mostly Cloudy 80 26.7 75 23.9 85 85 SSW 12 19 29.86 1011 10 16 0.00 0.00
5:53 am 05:53 Mostly Sunny 80 26.7 75 23.9 85 85 SSW 14 22 29.85 1011 10 16 0.00 0.00
6:53 am 06:53 Partly Cloudy 81 27.2 75 23.9 82 82 SSW 12 19 29.83 1010 10 16 0.00 0.00
7:53 am 07:53 Sunny 81 27.2 69 20.6 67 67 SSW 9 15 29.81 1010 10 16 0.00 0.00
8:53 am 08:53 Sunny 85 29.4 70 21.1 61 61 S 15 24 29.80 1009 10 16 0.00 0.00
9:53 am 09:53 Sunny 83 28.3 65 18.3 55 55 SSW 15 24 29.81 1010 10 16 0.00 0.00
10:53 am 10:53 Sunny 87 30.6 66 18.9 50 50 SW 17 28 29.80 1009 10 16 0.00 0.00
11:53 am 11:53 Sunny 89 31.7 65 18.3 45 45 SW 17 28 29.82 1010 10 16 0.00 0.00
12:53 pm 12:53 Sunny 91 32.8 63 17.2 39 39 SSW 22 35 29.82 1010 10 16 0.00 0.00
1:53 pm 13:53 Sunny 90 32.2 63 17.2 41 41 SW 23 37 29.83 1010 10 16 0.00 0.00
2:53 pm 14:53 Mostly Sunny 89 31.7 64 17.8 43 43 WSW 23 37 29.84 1010 10 16 0.00 0.00
3:53 pm 15:53 Mostly Cloudy 87 30.6 67 19.4 51 51 WSW 20 31 29.84 1011 10 16 0.00 0.00
4:53 pm 16:53 Sunny 85 29.4 55 12.8 36 36 W 25 41 29.87 1012 10 16 0.00 0.00
5:53 pm 17:53 Mostly Cloudy 83 28.3 61 16.1 48 48 W 21 33 29.89 1012 10 16 0.00 0.00
6:53 pm 18:53 Sunny 78 25.6 60 15.6 54 54 NW 14 22 29.92 1013 10 16 0.00 0.00
7:53 pm 19:53 Mostly Sunny 73 22.8 58 14.4 59 59 WNW 12 19 29.97 1015 10 16 0.00 0.00
8:53 pm 20:53 Clear 71 21.7 58 14.4 63 63 WNW 8 13 29.99 1016 10 16 0.00 0.00
9:53 pm 21:53 Clear 69 20.6 59 15 70 70 WNW 5 7 30.02 1017 10 16 0.00 0.00
10:53 pm 22:53 Clear 67 19.4 60 15.6 79 79 SSW 3 6 30.04 1017 10 16 0.00 0.00
11:53 pm 23:53 Clear 67 19.4 60 15.6 79 79 WSW 3 6 30.06 1018 10 16 0.00 0.00

Powered by AerisWeather